Starlink 36160

operational
NORAD ID: 66936 Int'l Des: 2025-286 Owner: SPXS Country: US Constellation: starlink
LEOCIRCULAR

About Starlink 36160

Description loading...

Live Position

Loading 3D Globe...

Upcoming Passes

Altitude History

Altitude vs Time

uPlot chart will show altitude changes over time

Two-Line Element Set

1 66936U 25286M 26013.66670139 .00033261 00000-0 83779-3 0 9995
2 66936 53.1577 255.7394 0001645 60.2249 107.5876 15.39623412 6077
Epoch: Jan 13, 2026 • Age: 24 hours

Current Status

Altitude 446.9 km
Velocity 7.65 km/s
Sub-Earth Point 4.48°N, 103.2°W
Launch Date Dec 7, 2025
Age 0.1 years
Type internet

Technical Details

Classification Payload
Mass 575.00 kg
Dry Mass 530.00 kg
Total Mass 575.00 kg
Length 0.30 m
Diameter 4.10 m
Span 29.00 m
Shape Box + pan
Manufacturer SPXS
Bus Type Starlink V2MO
Phase Status In Orbit
Owner/State SPXS/US

Large Constellations

Loading constellations...